Weather History for Albert Lea, MN

Change the Weather History Date:

Tuesday, January 8, 2013

  Actual Average Record
Temperature  
Mean Temperature 24 °F -  
Max Temperature 37 °F 22 °F 53 °F (2002)
Min Temperature 12 °F 8 °F -9 °F (2014)
Degree Days  
Heating Degree Days 40    
Moisture  
Dew Point 23 °F    
Average Humidity 91    
Maximum Humidity 100    
Minimum Humidity 81    
Precipitation  
Precipitation 0.00 in - - ()
Sea Level Pressure  
Sea Level Pressure 29.88 in    
Wind  
Wind Speed 5 mph (SSW)    
Max Wind Speed 16 mph    
Max Gust Speed 24 mph    
Visibility 6 miles    
Events Fog    
Averages and records for this station are not official NWS values.
T = Trace of Precipitation, MM = Missing Value Source: NWS Daily Summary

Daily Weather History Graph

Daily Weather History Graph

Search for Another Location

Airport:

Trip Planner

Search our weather history database for the weather conditions in past years. The results will help you decide how hot, cold, wet, or windy it might be!

Date:

Astronomy

Jan. 08, 2013 Rise Set
Actual Time 7:46 AM CST 4:54 PM CST
Civil Twilight 7:14 AM CST 5:26 PM CST
Nautical Twilight 6:38 AM CST 6:02 PM CST
Astronomical Twilight 6:03 AM CST 6:37 PM CST
Moon 4:19 AM CST (1/8) 1:57 PM CST (1/8)
Length of Visible Light 10h 12m
Length of Day
9h 07m
Waning Crescent, 13% of the Moon is Illuminated
Jan 8
Waning Crescent
Jan 11
New
Jan 18
First Quarter
Jan 26
Full
Feb 3
Last Quarter

Hourly Weather History & Observations

Time (CST) Temp. Windchill Dew Point Humidity Pressure Visibility Wind Dir Wind Speed Gust Speed Precip Events Conditions
12:12 AM 21.2 °F - 21.2 °F 100% 29.96 in 4.0 mi Calm Calm - N/A   Clear
12:32 AM 19.4 °F - 17.6 °F 93% 29.96 in 1.0 mi Calm Calm - N/A   Mist
12:52 AM 19.4 °F - 19.4 °F 100% 29.96 in 0.2 mi Calm Calm - N/A Fog Light Freezing Fog
1:12 AM 19.4 °F - 17.6 °F 93% 29.96 in 4.0 mi Calm Calm - N/A   Scattered Clouds
1:32 AM 17.6 °F 12.3 °F 17.6 °F 100% 29.96 in 7.0 mi South 3.5 mph - N/A   Clear
1:52 AM 17.6 °F - 15.8 °F 93% 29.97 in 5.0 mi Calm Calm - N/A   Clear
2:12 AM 15.8 °F - 14.0 °F 93% 29.97 in 5.0 mi Calm Calm - N/A   Clear
2:32 AM 15.8 °F - 15.8 °F 100% 29.97 in 3.0 mi Calm Calm - N/A   Clear
2:52 AM 12.2 °F - 10.4 °F 92% 29.97 in 4.0 mi Calm Calm - N/A   Scattered Clouds
3:12 AM 15.8 °F - 14.0 °F 93% 29.97 in 4.0 mi Calm Calm - N/A   Scattered Clouds
3:32 AM 15.8 °F - 14.0 °F 93% 29.96 in 5.0 mi Calm Calm - N/A   Scattered Clouds
3:52 AM 15.8 °F 8.6 °F 15.8 °F 100% 29.96 in 2.0 mi South 4.6 mph - N/A   Overcast
4:12 AM 15.8 °F - 15.8 °F 100% 29.95 in 4.0 mi Calm Calm - N/A   Overcast
4:32 AM 15.8 °F - 15.8 °F 100% 29.95 in 1.0 mi Calm Calm - N/A   Overcast
4:52 AM 15.8 °F - 14.0 °F 93% 29.94 in 0.2 mi Calm Calm - N/A Fog Light Freezing Fog
5:11 AM 14.0 °F 8.2 °F 12.2 °F 93% 29.94 in 1.0 mi South 3.5 mph - N/A   Overcast
5:32 AM 15.8 °F 8.6 °F 12.2 °F 86% 29.93 in 5.0 mi South 4.6 mph - N/A   Mostly Cloudy
5:52 AM 14.0 °F - 12.2 °F 93% 29.94 in 4.0 mi Calm Calm - N/A   Overcast
6:11 AM 14.0 °F - 12.2 °F 93% 29.94 in 3.0 mi Calm Calm - N/A   Overcast
6:32 AM 14.0 °F 8.2 °F 12.2 °F 93% 29.94 in 0.2 mi SE 3.5 mph - N/A Fog Light Freezing Fog
6:52 AM 15.8 °F - 12.2 °F 86% 29.93 in 0.2 mi Calm Calm - N/A Fog Light Freezing Fog
7:11 AM 14.0 °F - 12.2 °F 93% 29.93 in 1.0 mi Calm Calm - N/A   Overcast
7:32 AM 15.8 °F - 14.0 °F 93% 29.93 in 0.2 mi Calm Calm - N/A Fog Light Freezing Fog
7:52 AM 15.8 °F - 14.0 °F 93% 29.92 in 0.2 mi Calm Calm - N/A Fog Light Freezing Fog
8:12 AM 14.0 °F 8.2 °F 12.2 °F 93% 29.93 in 0.2 mi SE 3.5 mph - N/A Fog Light Freezing Fog
8:32 AM 15.8 °F 10.2 °F 12.2 °F 86% 29.93 in 0.2 mi SSE 3.5 mph - N/A Fog Light Freezing Fog
8:52 AM 15.8 °F 8.6 °F 15.8 °F 100% 29.92 in 0.2 mi SSE 4.6 mph - N/A Fog Light Freezing Fog
9:12 AM 17.6 °F 10.7 °F 15.8 °F 93% 29.91 in 1.2 mi SSE 4.6 mph - N/A   Overcast
9:32 AM 19.4 °F 11.5 °F 17.6 °F 93% 29.91 in 1.5 mi SSE 5.8 mph - N/A   Overcast
9:52 AM 21.2 °F 14.9 °F 19.4 °F 93% 29.90 in 2.5 mi SSE 4.6 mph - N/A   Scattered Clouds
10:12 AM 21.2 °F 13.6 °F 21.2 °F 100% 29.90 in 4.0 mi SSE 5.8 mph - N/A   Clear
10:32 AM 23.0 °F 15.8 °F 23.0 °F 100% 29.89 in 4.0 mi South 5.8 mph - N/A   Clear
10:51 AM 24.8 °F 16.9 °F 24.8 °F 100% 29.87 in 5.0 mi SSE 6.9 mph - N/A   Clear
11:12 AM 24.8 °F 14.6 °F 24.8 °F 100% 29.86 in 5.0 mi SSE 10.4 mph - N/A   Clear
11:51 AM 28.4 °F 19.7 °F 28.4 °F 100% 29.84 in 7.0 mi South 9.2 mph - N/A   Clear
12:12 PM 30.2 °F 20.2 °F 30.2 °F 100% 29.82 in 7.0 mi SSE 12.7 mph 17.3 mph N/A   Clear
12:32 PM 30.2 °F 19.8 °F 30.2 °F 100% 29.80 in 7.0 mi SSE 13.8 mph - N/A   Clear
12:51 PM 30.2 °F 21.9 °F 30.2 °F 100% 29.80 in 10.0 mi SSE 9.2 mph - N/A   Clear
1:12 PM 33.8 °F 23.5 °F 33.8 °F 100% 29.79 in 10.0 mi South 16.1 mph 21.9 mph N/A   Clear
1:52 PM 35.6 °F 28.0 °F 32.0 °F 87% 29.78 in 10.0 mi South 10.4 mph 19.6 mph N/A   Clear
2:12 PM 35.6 °F 27.5 °F 32.0 °F 87% 29.78 in 10.0 mi South 11.5 mph 19.6 mph N/A   Clear
2:32 PM 35.6 °F 28.6 °F 32.0 °F 87% 29.78 in 10.0 mi South 9.2 mph 18.4 mph N/A   Clear
2:52 PM 37.4 °F 31.4 °F 33.8 °F 87% 29.79 in 10.0 mi SSW 8.1 mph - N/A   Clear
3:12 PM 37.4 °F 28.9 °F 33.8 °F 87% 29.78 in 10.0 mi South 13.8 mph 20.7 mph N/A   Clear
3:32 PM 37.4 °F 30.8 °F 32.0 °F 81% 29.79 in 10.0 mi SSW 9.2 mph - N/A   Clear
3:52 PM 37.4 °F 29.3 °F 32.0 °F 81% 29.77 in 10.0 mi South 12.7 mph 21.9 mph N/A   Clear
4:12 PM 37.4 °F 30.3 °F 32.0 °F 81% 29.80 in 10.0 mi SSW 10.4 mph 19.6 mph N/A   Clear
4:32 PM 37.4 °F 30.8 °F 33.8 °F 87% 29.80 in 10.0 mi SSW 9.2 mph 19.6 mph N/A   Clear
4:52 PM 37.4 °F 28.9 °F 33.8 °F 87% 29.79 in 10.0 mi South 13.8 mph 18.4 mph N/A   Clear
5:12 PM 37.4 °F 29.8 °F 33.8 °F 87% 29.80 in 10.0 mi SSW 11.5 mph 19.6 mph N/A   Clear
5:32 PM 37.4 °F 28.5 °F 33.8 °F 87% 29.80 in 10.0 mi SSW 15.0 mph 24.2 mph N/A   Clear
5:52 PM 37.4 °F 28.9 °F 33.8 °F 87% 29.79 in 10.0 mi SSW 13.8 mph 20.7 mph N/A   Clear
6:12 PM 37.4 °F 29.3 °F 33.8 °F 87% 29.80 in 10.0 mi SW 12.7 mph 20.7 mph N/A   Scattered Clouds
6:32 PM 37.4 °F 28.9 °F 32.0 °F 81% 29.80 in 10.0 mi SW 13.8 mph 23.0 mph N/A   Scattered Clouds
6:52 PM 35.6 °F 25.9 °F 32.0 °F 87% 29.81 in 10.0 mi SW 16.1 mph 23.0 mph N/A   Scattered Clouds
7:12 PM 33.8 °F 24.8 °F 30.2 °F 87% 29.83 in 10.0 mi WSW 12.7 mph 21.9 mph N/A   Clear
7:32 PM 33.8 °F 24.3 °F 28.4 °F 81% 29.84 in 10.0 mi WSW 13.8 mph 20.7 mph N/A   Clear
7:52 PM 32.0 °F 21.6 °F 28.4 °F 87% 29.83 in 10.0 mi WSW 15.0 mph 20.7 mph N/A   Clear
8:12 PM 30.2 °F 20.2 °F 26.6 °F 86% 29.85 in 10.0 mi WSW 12.7 mph 19.6 mph N/A   Clear
8:32 PM 30.2 °F 20.2 °F 26.6 °F 86% 29.86 in 10.0 mi West 12.7 mph 20.7 mph N/A   Clear
8:52 PM 30.2 °F 19.8 °F 26.6 °F 86% 29.86 in 10.0 mi West 13.8 mph 20.7 mph N/A   Clear
9:12 PM 30.2 °F 20.2 °F 26.6 °F 86% 29.87 in 10.0 mi West 12.7 mph 19.6 mph N/A   Clear
9:31 PM 30.2 °F 20.8 °F 26.6 °F 86% 29.88 in 10.0 mi West 11.5 mph 20.7 mph N/A   Clear
9:52 PM 30.2 °F 21.3 °F 26.6 °F 86% 29.90 in 10.0 mi West 10.4 mph 17.3 mph N/A   Clear
10:12 PM 30.2 °F 20.2 °F 26.6 °F 86% 29.91 in 10.0 mi West 12.7 mph 18.4 mph N/A   Clear
10:31 PM 30.2 °F 20.8 °F 26.6 °F 86% 29.92 in 10.0 mi West 11.5 mph 17.3 mph N/A   Clear
11:52 PM 30.2 °F 20.8 °F 26.6 °F 86% 29.96 in 10.0 mi West 11.5 mph 17.3 mph N/A   Clear